�N����,����,�~����,�C��,���x,�C��,����,���ϕ���,�ő�u�ԕ���,�ő厞����,���˗�,�I�_���x,�n�����x,�ő啗���N��,DTYPE
"21/11/08","00:10",0.0,11.6,90.5,1016.1,298.2,1.3,2.1,316.6,0.00,10.1,15.7,"00:00:16",1
"21/11/08","00:20",0.0,12.2,90.7,1016.8,271.6,1.6,2.8,244.5,0.00,10.8,15.5,"00:11:38",1
"21/11/08","00:30",0.0,12.4,90.7,1016.6,319.4,1.1,2.0,354.4,0.00,11.0,15.6,"00:25:26",1
"21/11/08","00:40",0.0,12.4,90.8,1016.4,282.3,1.0,1.4,324.2,0.00,11.0,15.7,"00:36:02",1
"21/11/08","00:50",0.0,12.3,90.9,1016.4,301.5,1.0,1.8,308.5,0.00,10.9,15.6,"00:41:08",1
"21/11/08","01:00",0.0,12.1,91.0,1016.1,303.8,0.8,1.7,271.2,0.00,10.7,15.5,"00:59:08",1
"21/11/08","01:10",0.0,11.8,91.2,1016.6,277.5,1.2,1.8,303.2,0.00,10.5,15.6,"01:09:24",1
"21/11/08","01:20",0.0,12.1,91.4,1015.9,279.6,1.3,2.0,250.8,0.00,10.8,15.5,"01:15:42",1
"21/11/08","01:30",0.0,12.5,91.2,1016.1,290.4,1.3,1.9,309.4,0.00,11.1,15.4,"01:27:00",1
"21/11/08","01:40",0.0,12.2,91.2,1015.9,313.2,1.5,2.8,336.9,0.00,10.8,15.7,"01:32:40",1
"21/11/08","01:50",0.0,12.0,91.2,1015.9,308.0,1.2,1.8,322.0,0.00,10.7,15.4,"01:45:20",1
"21/11/08","02:00",0.0,11.9,91.2,1015.6,304.4,1.0,1.9,311.9,0.00,10.6,15.5,"01:55:08",1
"21/11/08","02:10",0.0,11.7,91.4,1015.4,283.6,1.1,1.9,326.0,0.00,10.4,15.3,"02:00:24",1
"21/11/08","02:20",0.0,12.1,91.5,1015.4,283.4,1.5,2.4,266.5,0.00,10.8,15.4,"02:12:44",1
"21/11/08","02:30",0.0,12.4,91.3,1015.6,298.1,1.5,2.2,255.4,0.00,11.1,15.4,"02:24:12",1
"21/11/08","02:40",0.0,12.5,91.2,1015.9,275.9,1.0,1.7,333.8,0.00,11.1,15.2,"02:30:08",1
"21/11/08","02:50",0.0,12.4,91.0,1015.9,314.8,1.2,2.7,318.6,0.00,11.0,15.5,"02:44:28",1
"21/11/08","03:00",0.0,12.1,91.0,1015.9,302.1,1.0,1.7,321.4,0.00,10.7,15.2,"02:52:14",1
"21/11/08","03:10",0.0,12.0,91.1,1015.6,312.6,1.1,1.9,331.6,0.00,10.6,15.1,"03:08:16",1
"21/11/08","03:20",0.0,11.8,91.1,1015.9,293.6,1.1,2.2,323.0,0.00,10.4,15.4,"03:13:14",1
"21/11/08","03:30",0.0,12.0,91.4,1015.9,296.6,1.2,2.0,314.3,0.00,10.7,15.3,"03:22:08",1
"21/11/08","03:40",0.0,12.2,91.3,1015.6,304.0,1.0,1.3,331.8,0.00,10.9,15.3,"03:30:08",1
"21/11/08","03:50",0.0,12.3,91.5,1015.6,302.4,1.3,1.8,317.5,0.00,11.0,15.1,"03:48:16",1
"21/11/08","04:00",0.0,12.4,91.6,1015.4,278.1,0.5,1.0,253.0,0.00,11.1,15.1,"03:50:56",1
"21/11/08","04:10",0.0,12.7,91.7,1015.4,323.6,1.0,1.4,335.8,0.00,11.4,15.1,"04:01:20",1
"21/11/08","04:20",0.0,12.7,91.5,1015.6,272.0,0.7,1.2,264.3,0.00,11.4,15.2,"04:14:24",1
"21/11/08","04:30",0.0,12.7,91.6,1015.6,284.3,1.1,1.8,247.7,0.00,11.4,15.1,"04:29:40",1
"21/11/08","04:40",0.0,12.5,91.7,1015.6,290.7,0.8,1.9,337.7,0.00,11.2,15.2,"04:34:02",1
"21/11/08","04:50",0.0,12.3,91.7,1015.6,290.0,0.7,1.2,259.0,0.00,11.0,15.2,"04:40:42",1
"21/11/08","05:00",0.0,12.3,91.8,1015.9,318.8,1.1,1.7,307.5,0.00,11.0,15.2,"04:51:14",1
"21/11/08","05:10",0.0,12.1,92.0,1015.6,306.8,1.2,2.0,321.6,0.00,10.9,15.1,"05:00:32",1
"21/11/08","05:20",0.0,12.1,92.1,1015.6,296.5,1.0,1.7,308.0,0.00,10.9,15.1,"05:11:12",1
"21/11/08","05:30",0.0,12.3,92.3,1015.4,282.5,1.1,1.6,329.7,0.00,11.1,15.2,"05:27:18",1
"21/11/08","05:40",0.0,12.6,92.3,1015.6,300.2,1.1,1.7,334.9,0.00,11.4,15.2,"05:34:40",1
"21/11/08","05:50",0.0,13.0,92.3,1015.9,303.5,0.8,1.6,283.0,0.00,11.8,15.0,"05:41:04",1
"21/11/08","06:00",0.0,13.0,92.2,1015.6,302.1,0.8,1.3,320.4,0.00,11.8,15.1,"05:52:56",1
"21/11/08","06:10",0.0,12.8,92.2,1015.4,280.7,0.6,1.2,317.6,0.00,11.6,15.2,"06:04:50",1
"21/11/08","06:20",0.0,12.7,92.3,1015.6,304.0,0.7,1.7,335.6,0.00,11.5,15.2,"06:19:16",1
"21/11/08","06:30",0.0,12.7,92.5,1015.4,274.5,0.7,2.1,350.8,0.00,11.6,15.1,"06:20:08",1
"21/11/08","06:40",0.0,12.8,92.5,1015.6,291.2,0.8,1.6,313.5,0.00,11.7,15.1,"06:34:40",1
"21/11/08","06:50",0.0,12.9,92.5,1015.6,294.1,0.8,1.3,319.7,0.00,11.8,15.1,"06:45:38",1
"21/11/08","07:00",0.0,13.1,92.6,1015.9,287.2,0.8,2.0,308.5,0.00,12.0,15.2,"06:52:16",1
"21/11/08","07:10",0.0,13.5,92.6,1015.6,284.8,0.7,1.6,330.7,0.00,12.4,15.0,"07:00:16",1
"21/11/08","07:20",0.0,13.8,92.6,1015.9,294.0,0.7,1.4,308.6,0.01,12.7,15.1,"07:15:04",1
"21/11/08","07:30",0.0,14.5,92.6,1015.9,289.8,0.5,1.2,308.8,0.02,13.4,15.1,"07:22:16",1
"21/11/08","07:40",0.0,15.5,91.8,1015.9,276.5,0.3,1.1,116.1,0.03,14.2,15.2,"07:36:16",1
"21/11/08","07:50",0.0,15.9,90.8,1015.6,202.5,0.5,1.8,134.6,0.03,14.4,15.1,"07:48:32",1
"21/11/08","08:00",0.0,16.3,88.7,1016.4,100.2,1.0,2.1,101.8,0.04,14.5,15.2,"07:53:44",1
"21/11/08","08:10",0.0,16.8,86.2,1016.4,86.2,0.7,2.2,122.0,0.05,14.5,15.1,"08:08:40",1
"21/11/08","08:20",0.0,17.2,83.2,1016.1,90.0,0.8,2.1,100.9,0.05,14.4,15.2,"08:16:56",1
"21/11/08","08:30",0.0,17.8,80.0,1016.1,67.2,0.8,3.6,85.5,0.11,14.3,15.2,"08:20:48",1
"21/11/08","08:40",0.0,18.4,76.1,1015.9,92.8,1.3,3.4,123.6,0.14,14.2,15.2,"08:34:16",1
"21/11/08","08:50",0.0,18.8,73.7,1015.6,92.6,1.1,2.6,158.0,0.13,14.0,15.3,"08:47:04",1
"21/11/08","09:00",0.0,18.8,72.4,1015.2,74.0,1.5,4.2,120.6,0.11,13.8,15.2,"08:51:04",1
"21/11/08","09:10",0.0,19.0,71.8,1015.4,77.2,1.5,3.6,99.2,0.16,13.8,15.3,"09:04:00",1
"21/11/08","09:20",0.0,19.2,71.0,1014.7,96.0,1.5,4.0,112.7,0.16,13.9,15.4,"09:12:08",1
"21/11/08","09:30",0.0,19.3,69.9,1014.2,86.4,1.5,3.4,94.2,0.15,13.7,15.3,"09:21:20",1
"21/11/08","09:40",0.0,19.4,69.1,1014.0,92.6,1.3,3.4,141.0,0.17,13.6,15.5,"09:39:36",1
"21/11/08","09:50",0.0,20.1,67.7,1014.0,46.7,1.1,3.1,55.9,0.25,14.0,15.4,"09:44:48",1
"21/11/08","10:00",0.0,21.1,65.5,1013.8,75.3,1.0,2.2,94.7,0.32,14.4,15.4,"09:55:44",1
"21/11/08","10:10",0.0,21.5,63.3,1013.8,114.8,1.2,2.9,74.1,0.34,14.3,15.7,"10:09:20",1
"21/11/08","10:20",0.0,21.8,62.0,1013.8,113.2,1.6,5.0,120.6,0.36,14.2,15.6,"10:16:56",1
"21/11/08","10:30",0.0,21.0,61.8,1013.8,114.9,1.3,3.6,113.7,0.12,13.4,15.8,"10:27:36",1
"21/11/08","10:40",0.0,20.3,63.8,1013.5,130.4,1.2,4.3,97.0,0.06,13.3,15.8,"10:37:04",1
"21/11/08","10:50",0.0,20.0,65.1,1013.8,146.4,1.6,3.1,121.3,0.01,13.3,15.7,"10:49:12",1
"21/11/08","11:00",0.0,19.9,65.8,1013.5,165.2,1.7,4.0,223.2,0.00,13.4,15.8,"10:54:56",1
"21/11/08","11:10",0.0,19.8,66.7,1013.3,121.8,1.6,4.9,125.3,0.01,13.5,15.7,"11:03:20",1
"21/11/08","11:20",0.0,19.8,67.8,1013.0,137.5,1.1,2.8,74.8,0.00,13.7,15.9,"11:14:40",1
"21/11/08","11:30",0.0,19.5,69.2,1013.0,153.0,1.1,2.8,130.8,0.00,13.8,16.0,"11:21:20",1
"21/11/08","11:40",0.0,19.3,70.6,1012.8,163.1,0.8,2.9,136.7,0.01,13.9,16.1,"11:30:40",1
"21/11/08","11:50",0.0,19.6,71.3,1012.8,146.6,1.1,3.7,130.6,0.05,14.3,15.9,"11:49:52",1
"21/11/08","12:00",0.0,20.6,71.0,1012.6,143.5,1.2,3.6,125.1,0.22,15.2,15.9,"11:50:40",1
"21/11/08","12:10",0.0,21.2,67.3,1012.6,113.5,1.5,4.7,109.4,0.18,14.9,16.3,"12:08:24",1
"21/11/08","12:20",0.0,21.3,66.2,1012.3,110.5,1.2,2.9,128.3,0.17,14.8,16.1,"12:12:48",1
"21/11/08","12:30",0.0,21.6,64.5,1011.6,135.4,1.8,4.8,145.4,0.22,14.7,16.2,"12:21:52",1
"21/11/08","12:40",0.0,22.0,62.7,1011.6,122.3,2.1,4.7,141.9,0.30,14.6,16.3,"12:32:56",1
"21/11/08","12:50",0.0,22.4,61.6,1011.2,112.4,2.1,4.0,110.4,0.32,14.7,16.1,"12:42:08",1
"21/11/08","13:00",0.0,22.1,61.3,1010.9,124.9,2.3,4.4,213.4,0.21,14.3,16.3,"12:55:28",1
"21/11/08","13:10",0.0,21.4,63.0,1011.4,128.0,2.2,5.1,109.7,0.08,14.1,16.5,"13:02:32",1
"21/11/08","13:20",0.0,20.9,65.5,1011.6,133.7,2.0,4.8,120.2,0.03,14.2,16.5,"13:12:32",1
"21/11/08","13:30",0.0,20.5,68.4,1011.6,102.8,2.1,4.9,102.6,0.08,14.5,16.6,"13:25:44",1
"21/11/08","13:40",0.0,20.3,69.8,1011.4,144.4,2.2,4.9,177.3,0.09,14.6,16.3,"13:31:44",1
"21/11/08","13:50",0.0,20.3,70.4,1011.4,142.8,1.6,4.1,132.1,0.07,14.8,16.5,"13:40:40",1
"21/11/08","14:00",0.0,20.4,70.1,1011.2,146.7,2.1,5.1,165.6,0.09,14.8,16.7,"13:51:28",1
"21/11/08","14:10",0.0,20.7,69.5,1010.7,143.0,1.8,4.5,105.4,0.13,15.0,16.4,"14:08:24",1
"21/11/08","14:20",0.0,20.9,68.2,1011.2,118.7,2.0,4.3,117.1,0.13,14.9,16.4,"14:12:40",1
"21/11/08","14:30",0.0,20.8,67.4,1010.2,136.1,2.2,5.6,123.3,0.08,14.6,16.4,"14:28:48",1
"21/11/08","14:40",0.0,20.9,67.7,1009.7,157.1,2.0,5.9,155.9,0.10,14.7,16.5,"14:32:00",1
"21/11/08","14:50",0.0,21.5,66.8,1010.0,177.5,1.6,4.3,210.5,0.19,15.1,16.7,"14:41:44",1
"21/11/08","15:00",0.0,21.4,65.5,1009.7,147.0,1.7,4.0,203.0,0.15,14.7,16.8,"14:54:40",1
"21/11/08","15:10",0.0,20.9,66.6,1010.0,127.4,2.0,5.6,103.9,0.02,14.5,16.8,"15:05:04",1
"21/11/08","15:20",0.0,20.6,68.1,1010.4,121.4,2.2,5.4,124.7,0.00,14.6,16.7,"15:17:36",1
"21/11/08","15:30",0.0,20.1,70.6,1009.7,143.6,2.0,4.7,112.2,0.01,14.6,16.6,"15:26:48",1
"21/11/08","15:40",0.0,20.1,70.9,1010.0,137.1,1.8,4.3,155.6,0.02,14.7,16.7,"15:30:48",1
"21/11/08","15:50",0.0,20.1,70.9,1010.0,117.8,1.6,4.9,98.6,0.00,14.7,16.8,"15:40:56",1
"21/11/08","16:00",0.0,20.0,71.1,1009.7,118.7,1.7,3.7,163.3,0.01,14.6,16.7,"15:59:52",1
"21/11/08","16:10",0.0,20.0,71.2,1010.0,126.6,1.7,3.3,87.2,0.00,14.7,16.6,"16:00:40",1
"21/11/08","16:20",0.0,19.8,71.8,1009.7,131.3,1.2,4.4,159.4,0.00,14.6,16.8,"16:14:00",1
"21/11/08","16:30",0.0,19.7,72.1,1009.7,122.6,1.3,4.4,111.9,0.00,14.6,16.8,"16:26:32",1
"21/11/08","16:40",0.0,19.7,72.1,1010.0,119.8,1.2,4.2,127.7,0.00,14.6,16.8,"16:38:08",1
"21/11/08","16:50",0.0,19.7,71.5,1009.5,125.9,2.1,4.7,112.6,0.00,14.4,16.9,"16:49:04",1
"21/11/08","17:00",0.0,19.8,70.6,1010.0,123.2,2.0,4.8,107.9,0.00,14.3,16.7,"16:57:28",1
"21/11/08","17:10",0.0,19.9,69.9,1009.0,122.4,1.8,7.8,123.2,0.00,14.3,16.7,"17:09:12",1
"21/11/08","17:20",0.0,19.9,69.3,1009.5,121.8,1.6,4.1,101.6,0.00,14.2,16.9,"17:10:32",1
"21/11/08","17:30",0.0,19.9,68.8,1009.7,117.5,1.5,4.1,107.8,0.00,14.0,16.7,"17:24:48",1
"21/11/08","17:40",0.0,20.0,68.2,1009.3,115.8,1.6,5.1,128.6,0.00,14.0,16.9,"17:36:08",1
"21/11/08","17:50",0.0,20.0,67.5,1009.3,110.5,1.8,4.4,108.0,0.00,13.8,16.7,"17:44:32",1
"21/11/08","18:00",0.0,20.0,67.1,1009.5,105.2,2.0,5.5,138.1,0.00,13.8,16.9,"17:50:56",1
"21/11/08","18:10",0.0,20.0,67.1,1010.0,118.4,1.5,2.8,100.0,0.00,13.8,16.9,"18:01:36",1
"21/11/08","18:20",0.0,19.9,67.0,1009.7,142.3,1.3,3.2,125.5,0.00,13.6,16.9,"18:15:20",1
"21/11/08","18:30",0.0,19.9,66.6,1009.5,116.6,1.7,4.3,115.5,0.00,13.5,16.9,"18:27:12",1
"21/11/08","18:40",0.0,19.9,66.6,1009.3,126.6,1.5,5.7,101.5,0.00,13.5,17.0,"18:38:40",1
"21/11/08","18:50",0.0,19.9,66.6,1009.3,146.0,1.7,5.6,171.8,0.00,13.5,16.8,"18:49:20",1
"21/11/08","19:00",0.0,20.0,66.9,1009.5,129.9,1.6,4.2,124.8,0.00,13.7,16.8,"18:59:44",1
"21/11/08","19:10",0.0,19.8,68.0,1009.0,128.2,1.2,4.7,119.5,0.00,13.8,16.8,"19:00:16",1
"21/11/08","19:20",0.0,19.7,68.6,1008.8,126.2,1.5,3.7,113.6,0.00,13.8,16.8,"19:13:44",1
"21/11/08","19:30",0.0,19.8,68.7,1008.6,124.1,1.6,3.5,97.5,0.00,13.9,16.7,"19:27:04",1
"21/11/08","19:40",0.0,19.8,69.0,1008.6,114.9,1.7,4.1,112.1,0.00,14.0,16.7,"19:30:48",1
"21/11/08","19:50",0.0,19.8,69.3,1008.3,135.2,1.7,4.8,122.4,0.00,14.1,16.9,"19:43:12",1
"21/11/08","20:00",0.0,19.8,68.9,1008.3,130.5,1.7,5.0,91.9,0.00,14.0,16.8,"19:50:08",1
"21/11/08","20:10",0.0,19.8,68.9,1008.6,122.1,1.6,3.9,128.1,0.00,14.0,16.7,"20:01:04",1
"21/11/08","20:20",0.0,19.8,68.2,1008.3,131.5,2.0,5.9,134.1,0.00,13.8,16.8,"20:16:48",1
"21/11/08","20:30",0.0,19.8,67.8,1008.6,130.2,1.2,2.8,149.3,0.00,13.7,16.7,"20:23:20",1
"21/11/08","20:40",0.0,19.7,67.2,1008.6,129.8,1.5,3.6,164.9,0.00,13.5,16.7,"20:33:52",1
"21/11/08","20:50",0.0,19.6,66.3,1007.8,125.7,1.7,4.2,165.5,0.00,13.2,16.7,"20:44:08",1
"21/11/08","21:00",0.0,19.7,65.9,1008.1,134.1,1.7,4.4,119.3,0.00,13.2,16.7,"20:56:48",1
"21/11/08","21:10",0.0,19.8,65.8,1007.6,139.8,2.1,6.5,148.6,0.00,13.3,16.7,"21:08:32",1
"21/11/08","21:20",0.0,19.8,65.8,1007.4,108.7,2.1,4.8,140.7,0.00,13.3,16.6,"21:16:40",1
"21/11/08","21:30",0.0,19.7,66.5,1007.1,114.2,1.6,3.9,108.4,0.00,13.3,16.7,"21:20:32",1
"21/11/08","21:40",0.0,19.8,66.2,1007.1,107.3,2.0,6.4,120.3,0.00,13.4,16.8,"21:32:00",1
"21/11/08","21:50",0.0,19.7,66.9,1007.1,142.2,1.3,3.3,175.4,0.00,13.4,16.7,"21:40:24",1
"21/11/08","22:00",0.0,19.7,67.5,1007.6,147.7,1.3,3.4,93.6,0.00,13.6,16.7,"21:57:04",1
"21/11/08","22:10",0.0,19.7,67.7,1006.9,94.8,1.3,3.3,125.2,0.00,13.6,16.7,"22:03:12",1
"21/11/08","22:20",0.0,19.7,68.0,1006.7,132.0,1.6,4.5,85.5,0.00,13.7,16.6,"22:11:44",1
"21/11/08","22:30",0.0,19.7,68.0,1007.1,128.9,1.7,5.0,153.6,0.00,13.7,16.6,"22:24:16",1
"21/11/08","22:40",0.0,19.6,68.4,1006.9,125.6,1.2,2.9,117.0,0.00,13.7,16.7,"22:32:24",1
"21/11/08","22:50",0.0,19.5,69.0,1006.9,148.5,1.1,2.8,127.2,0.00,13.7,16.8,"22:43:36",1
"21/11/08","23:00",0.0,19.5,69.1,1006.2,125.4,1.1,3.3,180.6,0.00,13.7,16.6,"22:52:32",1
"21/11/08","23:10",0.0,19.5,69.7,1006.0,108.7,1.1,2.8,119.0,0.00,13.9,16.7,"23:01:52",1
"21/11/08","23:20",0.0,19.6,70.3,1005.7,93.8,1.6,5.0,117.5,0.00,14.1,16.9,"23:18:40",1
"21/11/08","23:30",0.0,19.5,70.4,1006.0,99.6,1.5,3.7,107.9,0.00,14.0,16.7,"23:26:08",1
"21/11/08","23:40",0.0,19.4,70.9,1005.5,102.1,1.5,5.7,151.4,0.00,14.0,16.8,"23:38:00",1
"21/11/08","23:50",0.0,19.4,71.3,1005.0,96.0,1.6,4.4,108.6,0.00,14.1,16.7,"23:48:16",1
"21/11/08","24:00",0.0,18.9,72.6,1005.2,88.4,1.7,4.2,29.2,0.00,13.9,16.7,"23:56:56",1
